Location: Newark
(25.0000°N, 73.5000°E)
Time: 19:51:43
(UTC+00:00)

Explorer 7 - All Passes

Search period start: 28 February 2021 00:00
Search period end: 10 March 2021 00:00
Orbit: 484 x 677 km, 50.3° (Epoch: 28 February)

Date Brightness Start Highest point End Pass type
(mag) Time Alt. Az. Time Alt. Az. Time Alt. Az.
28 Feb - 07:55:17 10° S 07:59:26 30° SE 08:03:26 10° ENE daylight
28 Feb - 09:35:50 10° WSW 09:39:55 29° NW 09:43:49 10° NNE daylight
28 Feb - 16:26:58 10° N 16:29:34 17° NE 16:32:07 10° E night (unlit)
28 Feb - 18:06:36 10° WNW 18:10:04 35° SW 18:13:30 10° SSE night (unlit)
01 Mar - 07:59:12 10° SSW 08:03:53 56° SE 08:08:21 10° NE daylight
01 Mar - 09:41:23 10° W 09:44:35 18° NW 09:47:40 10° N daylight
01 Mar - 16:30:50 10° NNW 16:34:15 30° NE 16:37:35 10° ESE night (unlit)
01 Mar - 18:11:55 10° W 18:14:28 17° SW 18:16:59 10° S night (unlit)
02 Mar - 06:27:23 10° SE 06:28:11 10° SE 06:28:58 10° ESE daylight
02 Mar - 08:03:34 10° SW 08:08:22 80° NW 08:12:56 10° NE daylight
02 Mar - 09:47:52 10° NW 09:49:21 11° NW 09:50:49 10° NNW daylight
02 Mar - 16:35:02 10° NW 16:38:50 61° NE 16:42:31 10° SE night (unlit)
03 Mar - 06:29:04 10° S 06:32:33 20° SE 06:35:57 10° E daylight
03 Mar - 08:08:20 10° WSW 08:12:54 44° NW 08:17:16 10° NNE daylight
03 Mar - 15:00:58 10° N 15:02:34 12° NE 15:04:08 10° ENE visible
03 Mar - 16:39:33 10° NW 16:43:20 63° SW 16:47:01 10° SSE night (unlit)
04 Mar - 06:32:32 10° SSW 06:36:57 36° SE 06:41:15 10° ENE daylight
04 Mar - 08:13:30 10° W 08:17:30 26° NW 08:21:23 10° NNE daylight
04 Mar - 15:04:20 10° N 15:07:19 20° NE 15:10:12 10° E visible
04 Mar - 16:44:24 10° WNW 16:47:45 29° SW 16:51:01 10° S night (unlit)
05 Mar - 06:36:35 10° SSW 06:41:24 66° SE 06:46:02 10° NE daylight
05 Mar - 08:19:10 10° WNW 08:22:13 17° NW 08:25:10 10° N daylight
05 Mar - 15:08:19 10° NNW 15:11:58 36° NE 15:15:29 10° ESE visible
05 Mar - 16:49:57 10° W 16:52:06 15° SW 16:54:15 10° SSW night (unlit)
06 Mar - 05:03:32 10° SSE 05:05:41 13° SE 05:07:48 10° E daylight
06 Mar - 06:41:03 10° SW 06:45:53 69° NW 06:50:33 10° NE daylight
06 Mar - 08:26:02 10° NW 08:27:01 11° NNW 08:27:58 10° NNW daylight
06 Mar - 15:12:36 10° NW 15:16:32 75° NE 15:20:17 10° SE visible
07 Mar - 05:06:11 10° S 05:10:02 23° SE 05:13:51 10° ENE daylight
07 Mar - 06:45:55 10° WSW 06:50:27 39° NW 06:54:51 10° NNE daylight
07 Mar - 13:38:02 10° N 13:40:18 14° NE 13:42:30 10° ENE visible
07 Mar - 15:17:11 10° NW 15:21:00 51° SW 15:24:39 10° SSE visible
08 Mar - 05:09:50 10° SSW 05:14:26 42° SE 05:18:57 10° ENE daylight
08 Mar - 06:51:10 10° W 06:55:05 24° NW 06:58:54 10° NNE daylight
08 Mar - 13:41:41 10° NNW 13:45:02 24° NE 13:48:14 10° E visible
08 Mar - 15:22:10 10° WNW 15:25:23 25° SW 15:28:31 10° S visible
09 Mar - 05:14:00 10° SW 05:18:53 78° SE 05:23:40 10° NE daylight
09 Mar - 06:56:59 10° WNW 06:59:49 15° NW 07:02:35 10° N daylight
09 Mar - 13:45:47 10° NNW 13:49:40 44° NE 13:53:21 10° ESE visible
09 Mar - 15:28:04 10° W 15:29:43 12° SW 15:31:22 10° SSW visible
